******** Week 363 almanac for PRN-1 ******** ID: 1 Health: 0 Eccentricity: 0.001650333405 Time of Applicability(s): 405504 Orbital Inclination(rad): 0.957979391 Rate of Right Ascen(r/s): -7.977475151e-09 SQRT(A) (m 1/2): 5153.57373 Right Ascen at Week(rad): 2.759393627 Argument of Perigee(rad): 0.1246250784 Mean Anom(rad): 1.307782663 Af0(s): 0.0002449441528 Af1(s/s): -7.275958e-12 week: 363 ******** Week 363 almanac for PRN-2 ******** ID: 2 Health: 0 Eccentricity: 0.01685810089 Time of Applicability(s): 405504 Orbital Inclination(rad): 0.9631266156 Rate of Right Ascen(r/s): -7.817468486e-09 SQRT(A) (m 1/2): 5153.538086 Right Ascen at Week(rad): 2.596998765 Argument of Perigee(rad): -0.7977909758 Mean Anom(rad): 2.801385227 Af0(s): 5.200352783e-05 Af1(s/s): 7.275958e-12 week: 363 ******** Week 363 almanac for PRN-3 ******** ID: 3 Health: 0 Eccentricity: 0.006590843201 Time of Applicability(s): 405504 Orbital Inclination(rad): 0.9937523023 Rate of Right Ascen(r/s): -7.817468486e-09 SQRT(A) (m 1/2): 5153.571777 Right Ascen at Week(rad): -2.536304658 Argument of Perigee(rad): 1.202986234 Mean Anom(rad): -0.7860659098 Af0(s): 0.0004160282227 Af1(s/s): -1.455192e-11 week: 363 ******** Week 363 almanac for PRN-4 ******** ID: 4 Health: 0 Eccentricity: 0.003712654114 Time of Applicability(s): 405504 Orbital Inclination(rad): 0.9705628271 Rate of Right Ascen(r/s): -7.794610391e-09 SQRT(A) (m 1/2): 5153.677246 Right Ascen at Week(rad): -1.466115246 Argument of Perigee(rad): -2.872668146 Mean Anom(rad): 2.174506526 Af0(s): 3.994473877e-05 Af1(s/s): 0 week: 363 ******** Week 363 almanac for PRN-5 ******** ID: 5 Health: 0 Eccentricity: 0.005440235138 Time of Applicability(s): 405504 Orbital Inclination(rad): 0.9802940178 Rate of Right Ascen(r/s): -7.943188008e-09 SQRT(A) (m 1/2): 5153.671875 Right Ascen at Week(rad): -2.596343378 Argument of Perigee(rad): 1.416501679 Mean Anom(rad): 2.846317082 Af0(s): -0.0001823891846 Af1(s/s): 0 week: 363 ******** Week 363 almanac for PRN-6 ******** ID: 6 Health: 0 Eccentricity: 0.003826618195 Time of Applicability(s): 405504 Orbital Inclination(rad): 0.9868254203 Rate of Right Ascen(r/s): -7.691748963e-09 SQRT(A) (m 1/2): 5153.609375 Right Ascen at Week(rad): 2.710599855 Argument of Perigee(rad): -0.5473985726 Mean Anom(rad): 0.511666108 Af0(s): -0.0004838589111 Af1(s/s): 0 week: 363 ******** Week 363 almanac for PRN-7 ******** ID: 7 Health: 0 Eccentricity: 0.02063035965 Time of Applicability(s): 405504 Orbital Inclination(rad): 0.9511663591 Rate of Right Ascen(r/s): -7.817468486e-09 SQRT(A) (m 1/2): 5153.5625 Right Ascen at Week(rad): -0.4574000396 Argument of Perigee(rad): -1.984167074 Mean Anom(rad): -0.3358571541 Af0(s): -0.0001311393311 Af1(s/s): -3.637979e-12 week: 363 ******** Week 363 almanac for PRN-8 ******** ID: 8 Health: 0 Eccentricity: 0.01159381866 Time of Applicability(s): 405504 Orbital Inclination(rad): 0.942951173 Rate of Right Ascen(r/s): -8.046049436e-09 SQRT(A) (m 1/2): 5153.641602 Right Ascen at Week(rad): 1.589116837 Argument of Perigee(rad): 0.5328171415 Mean Anom(rad): 2.479836114 Af0(s): 0.0003730687866 Af1(s/s): -7.275958e-12 week: 363 ******** Week 363 almanac for PRN-9 ******** ID: 9 Health: 0 Eccentricity: 0.003342151642 Time of Applicability(s): 405504 Orbital Inclination(rad): 0.9647564702 Rate of Right Ascen(r/s): -7.874613723e-09 SQRT(A) (m 1/2): 5153.717285 Right Ascen at Week(rad): -1.530544312 Argument of Perigee(rad): 2.055932358 Mean Anom(rad): 3.079940559 Af0(s): 0.0006036931274 Af1(s/s): -3.637979e-12 week: 363 ******** Week 363 almanac for PRN-10 ******** ID: 10 Health: 0 Eccentricity: 0.01092910767 Time of Applicability(s): 405504 Orbital Inclination(rad): 0.9932849176 Rate of Right Ascen(r/s): -7.806039438e-09 SQRT(A) (m 1/2): 5153.606934 Right Ascen at Week(rad): -2.538813106 Argument of Perigee(rad): -2.254839033 Mean Anom(rad): -1.781552779 Af0(s): -0.0004665244019 Af1(s/s): 0 week: 363 ******** Week 363 almanac for PRN-11 ******** ID: 11 Health: 0 Eccentricity: 0.002213001251 Time of Applicability(s): 405504 Orbital Inclination(rad): 0.9636958663 Rate of Right Ascen(r/s): -7.920329913e-09 SQRT(A) (m 1/2): 5153.540039 Right Ascen at Week(rad): 2.728860818 Argument of Perigee(rad): -2.313229547 Mean Anom(rad): 1.637503894 Af0(s): -0.0003112674927 Af1(s/s): 1.455192e-11 week: 363 ******** Week 363 almanac for PRN-12 ******** ID: 12 Health: 0 Eccentricity: 0.008962631226 Time of Applicability(s): 405504 Orbital Inclination(rad): 0.9592617031 Rate of Right Ascen(r/s): -7.886042771e-09 SQRT(A) (m 1/2): 5153.70166 Right Ascen at Week(rad): 0.6601764957 Argument of Perigee(rad): 1.567850455 Mean Anom(rad): -1.020217441 Af0(s): -0.0004808442139 Af1(s/s): 0 week: 363 ******** Week 363 almanac for PRN-13 ******** ID: 13 Health: 0 Eccentricity: 0.0100736618 Time of Applicability(s): 405504 Orbital Inclination(rad): 0.9761594602 Rate of Right Ascen(r/s): -7.726036106e-09 SQRT(A) (m 1/2): 5153.627441 Right Ascen at Week(rad): -1.355070542 Argument of Perigee(rad): 0.9939281712 Mean Anom(rad): 2.245951232 Af0(s): 0.0005388771362 Af1(s/s): 0 week: 363 ******** Week 363 almanac for PRN-14 ******** ID: 14 Health: 0 Eccentricity: 0.006853580475 Time of Applicability(s): 405504 Orbital Inclination(rad): 0.942633591 Rate of Right Ascen(r/s): -8.046049436e-09 SQRT(A) (m 1/2): 5153.593262 Right Ascen at Week(rad): 0.6051707759 Argument of Perigee(rad): -2.738565044 Mean Anom(rad): -1.162368325 Af0(s): 0.0005856049438 Af1(s/s): 0 week: 363 ******** Week 363 almanac for PRN-15 ******** ID: 15 Health: 0 Eccentricity: 0.01664113998 Time of Applicability(s): 405504 Orbital Inclination(rad): 0.9427114885 Rate of Right Ascen(r/s): -8.148910863e-09 SQRT(A) (m 1/2): 5153.65332 Right Ascen at Week(rad): -1.675218999 Argument of Perigee(rad): 1.505122026 Mean Anom(rad): 1.486649092 Af0(s): 0.0003142821899 Af1(s/s): 3.637979e-12 week: 363 ******** Week 363 almanac for PRN-16 ******** ID: 16 Health: 0 Eccentricity: 0.01501989365 Time of Applicability(s): 405504 Orbital Inclination(rad): 0.9583808625 Rate of Right Ascen(r/s): -7.897471818e-09 SQRT(A) (m 1/2): 5153.600098 Right Ascen at Week(rad): 0.6771094564 Argument of Perigee(rad): 0.9317004579 Mean Anom(rad): -2.764396291 Af0(s): 0.0001846502075 Af1(s/s): 7.275958e-12 week: 363 ******** Week 363 almanac for PRN-17 ******** ID: 17 Health: 0 Eccentricity: 0.0126080513 Time of Applicability(s): 405504 Orbital Inclination(rad): 0.9586025707 Rate of Right Ascen(r/s): -7.840326581e-09 SQRT(A) (m 1/2): 5153.555176 Right Ascen at Week(rad): 1.69423272 Argument of Perigee(rad): -1.11756942 Mean Anom(rad): 2.429169058 Af0(s): -7.687478027e-05 Af1(s/s): -1.091394e-11 week: 363 ******** Week 363 almanac for PRN-18 ******** ID: 18 Health: 0 Eccentricity: 0.005801200867 Time of Applicability(s): 405504 Orbital Inclination(rad): 0.971779226 Rate of Right Ascen(r/s): -7.840326581e-09 SQRT(A) (m 1/2): 5153.590332 Right Ascen at Week(rad): 2.705228675 Argument of Perigee(rad): -2.868066578 Mean Anom(rad): 0.4439080494 Af0(s): -0.000309760144 Af1(s/s): 1.091394e-11 week: 363 ******** Week 363 almanac for PRN-19 ******** ID: 19 Health: 0 Eccentricity: 0.01124429703 Time of Applicability(s): 405504 Orbital Inclination(rad): 0.9577756592 Rate of Right Ascen(r/s): -7.840326581e-09 SQRT(A) (m 1/2): 5153.675293 Right Ascen at Week(rad): 1.738123821 Argument of Perigee(rad): 2.941262853 Mean Anom(rad): -2.065178187 Af0(s): 0.0005494285767 Af1(s/s): 0 week: 363 ******** Week 363 almanac for PRN-20 ******** ID: 20 Health: 0 Eccentricity: 0.002234458923 Time of Applicability(s): 405504 Orbital Inclination(rad): 0.9601545278 Rate of Right Ascen(r/s): -7.931758961e-09 SQRT(A) (m 1/2): 5153.709473 Right Ascen at Week(rad): -1.525050294 Argument of Perigee(rad): -1.958508099 Mean Anom(rad): -1.070914083 Af0(s): 5.878659668e-05 Af1(s/s): 2.182787e-11 week: 363 ******** Week 363 almanac for PRN-21 ******** ID: 21 Health: 0 Eccentricity: 0.0008072853088 Time of Applicability(s): 405504 Orbital Inclination(rad): 0.9631625683 Rate of Right Ascen(r/s): -8.126052768e-09 SQRT(A) (m 1/2): 5153.727539 Right Ascen at Week(rad): -2.530777309 Argument of Perigee(rad): -0.2610999336 Mean Anom(rad): -1.372735289 Af0(s): 0.0003248336304 Af1(s/s): 3.637979e-12 week: 363 ******** Week 363 almanac for PRN-22 ******** ID: 22 Health: 0 Eccentricity: 0.01204538345 Time of Applicability(s): 405504 Orbital Inclination(rad): 0.9578295882 Rate of Right Ascen(r/s): -7.897471818e-09 SQRT(A) (m 1/2): 5153.564453 Right Ascen at Week(rad): 0.6804672865 Argument of Perigee(rad): -0.9935873698 Mean Anom(rad): 3.076755751 Af0(s): -2.261022949e-05 Af1(s/s): 7.275958e-12 week: 363 ******** Week 363 almanac for PRN-23 ******** ID: 23 Health: 0 Eccentricity: 0.006063461304 Time of Applicability(s): 405504 Orbital Inclination(rad): 0.9882815037 Rate of Right Ascen(r/s): -7.851755628e-09 SQRT(A) (m 1/2): 5153.662598 Right Ascen at Week(rad): -2.571004233 Argument of Perigee(rad): -2.737885313 Mean Anom(rad): -0.7069722724 Af0(s): 0.0004966713745 Af1(s/s): 3.637979e-12 week: 363 ******** Week 363 almanac for PRN-24 ******** ID: 24 Health: 0 Eccentricity: 0.01795196533 Time of Applicability(s): 405504 Orbital Inclination(rad): 0.9351314662 Rate of Right Ascen(r/s): -7.977475151e-09 SQRT(A) (m 1/2): 5153.590332 Right Ascen at Week(rad): -0.5663130501 Argument of Perigee(rad): 1.138056827 Mean Anom(rad): 0.6469904777 Af0(s): -5.124985352e-05 Af1(s/s): 1.818989e-11 week: 363 ******** Week 363 almanac for PRN-25 ******** ID: 25 Health: 0 Eccentricity: 0.01290464401 Time of Applicability(s): 405504 Orbital Inclination(rad): 0.9476729576 Rate of Right Ascen(r/s): -8.011762293e-09 SQRT(A) (m 1/2): 5153.65332 Right Ascen at Week(rad): 0.5661037007 Argument of Perigee(rad): 1.159291375 Mean Anom(rad): -1.140761142 Af0(s): 0.0003436754883 Af1(s/s): -3.637979e-12 week: 363 ******** Week 363 almanac for PRN-26 ******** ID: 26 Health: 0 Eccentricity: 0.01101160049 Time of Applicability(s): 405504 Orbital Inclination(rad): 0.9284862135 Rate of Right Ascen(r/s): -8.194627053e-09 SQRT(A) (m 1/2): 5153.664062 Right Ascen at Week(rad): 0.4911431229 Argument of Perigee(rad): 0.7113161794 Mean Anom(rad): -1.961413525 Af0(s): -0.0002728301025 Af1(s/s): -3.637979e-12 week: 363 ******** Week 363 almanac for PRN-27 ******** ID: 27 Health: 0 Eccentricity: 0.0143828392 Time of Applicability(s): 405504 Orbital Inclination(rad): 0.9520471997 Rate of Right Ascen(r/s): -7.943188008e-09 SQRT(A) (m 1/2): 5153.615234 Right Ascen at Week(rad): 1.621367135 Argument of Perigee(rad): 0.8891163872 Mean Anom(rad): 2.585499902 Af0(s): -6.481599121e-05 Af1(s/s): -1.455192e-11 week: 363 ******** Week 363 almanac for PRN-28 ******** ID: 28 Health: 0 Eccentricity: 0.0004525184631 Time of Applicability(s): 405504 Orbital Inclination(rad): 0.962083988 Rate of Right Ascen(r/s): -7.703178011e-09 SQRT(A) (m 1/2): 5153.757812 Right Ascen at Week(rad): -0.4828706371 Argument of Perigee(rad): -0.1433406926 Mean Anom(rad): 0.1159492485 Af0(s): -0.0004499435669 Af1(s/s): 7.275958e-12 week: 363 ******** Week 363 almanac for PRN-29 ******** ID: 29 Health: 0 Eccentricity: 0.00344991684 Time of Applicability(s): 405504 Orbital Inclination(rad): 0.9612570765 Rate of Right Ascen(r/s): -7.828897533e-09 SQRT(A) (m 1/2): 5153.696777 Right Ascen at Week(rad): 1.711032731 Argument of Perigee(rad): 2.745560835 Mean Anom(rad): 2.43845908 Af0(s): -0.0002781058228 Af1(s/s): 7.275958e-12 week: 363 ******** Week 363 almanac for PRN-30 ******** ID: 30 Health: 0 Eccentricity: 0.008141517639 Time of Applicability(s): 405504 Orbital Inclination(rad): 0.9364377467 Rate of Right Ascen(r/s): -7.977475151e-09 SQRT(A) (m 1/2): 5153.689941 Right Ascen at Week(rad): -0.466743241 Argument of Perigee(rad): -2.302188705 Mean Anom(rad): -0.5353900048 Af0(s): 0.0001311393311 Af1(s/s): 1.455192e-11 week: 363 ******** Week 363 almanac for PRN-31 ******** ID: 31 Health: 0 Eccentricity: 0.01083421707 Time of Applicability(s): 405504 Orbital Inclination(rad): 0.9549353979 Rate of Right Ascen(r/s): -7.771752296e-09 SQRT(A) (m 1/2): 5153.526855 Right Ascen at Week(rad): -0.4330810512 Argument of Perigee(rad): 0.9392954604 Mean Anom(rad): -1.421879225 Af0(s): -0.0001258636108 Af1(s/s): 3.637979e-12 week: 363 ******** Week 363 almanac for PRN-32 ******** ID: 32 Health: 0 Eccentricity: 0.00937128067 Time of Applicability(s): 405504 Orbital Inclination(rad): 0.9677884791 Rate of Right Ascen(r/s): -7.828897533e-09 SQRT(A) (m 1/2): 5153.695312 Right Ascen at Week(rad): -1.513455931 Argument of Perigee(rad): -1.987602427 Mean Anom(rad): -3.136635305 Af0(s): -2.336390381e-05 Af1(s/s): 1.818989e-11 week: 363